Weather in Sudbodarovka

Russia / Orenburg Oblast     52°19′59″N   54°04′48″E
temp.,
°C
wind,
m/s
gust,
m/s
humid.,
%
clouds,
%
prec.,
mm/h
press.,
hPa
HPBL,
m
23 october, sat
sat2323:00+10sw917660 0.0 1011622
02:00+9sw7157022 0.0 1012486
05:00+8sw7137596 0.0 1013368
08:00+7sw5128493 0.0 1013246
11:00+10sw71172100 0.0 1015399
14:00+14sw7116179 0.0 1015731
17:00+14sw7116057 0.0 1015679
20:00+11sw61471100 0.0 1016399
24 october, sun
sun2423:00+9ssw41082100 0.0 1017200
02:00+10s31080100 0.0 1015227
05:00+11ssw51264100 0.1 1013477
08:00+10ssw71485100 0.1 1011622
11:00+9sw61192100 2.3 1012554
14:00+12w71067100 0.6 10131220
17:00+11w5756100 0.6 1014760
20:00+7w3366100 0.0 101645
25 october, mon
mon2523:00+6wnw1271100 0.0 101610
02:00+4wsw117674 0.0 101610
05:00+4ssw1176100 0.0 101510
08:00+4wsw1173100 0.0 101510
11:00+6sw2363100 0.0 1015192
14:00+8w4553100 0.0 10141351
17:00+7wnw465588 0.2 10151168
20:00+4nw6108139 0.2 1017487
26 october, tue
tue2623:00+4nnw587886 0.2 1019886
02:00+2nnw71086100 0.1 1021610
05:000n510815 0.1 1024540
08:00−2nnw4979100 0.0 1026367
11:00+1nnw346260 0.0 1028449
14:00+4nw33375 0.0 1027793
17:00+4w453459 0.0 1027835
20:00+2sw484499 0.0 1027218
27 october, wed
wed2723:00+1sw5114794 0.0 1028320
02:00+1sw5115247 0.0 1027322
05:00−1sw5116134 0.0 1027254
08:00−1sw511675 0.0 1027232
11:00+3wsw610535 0.0 1027402
14:00+7wsw710409 0.0 1026770
17:00+7sw7114070 0.0 1025743
20:00+4sw6134966 0.0 1026339